Powrót do katalogu

STARLINK-11639

AktywnyŁącznośćVLEO
NORAD 63189·PAYLOAD·🇺🇸 United States

Wystrzelony Mar 13, 2025 z Cape Canaveral Space Force Station

Loading…

Następne Przeloty (najbliższe 24 godziny)

TLE

ŚwieżeSource: CelesTrak SupGP

Epoka: Sep 15, 2026, 02:51 UTC

1 63189C 25048G   26258.11923611 -.00011514  00000+0 -89395-4 0  2582
2 63189  43.0006 258.0121 0001409 265.4443 116.4651 15.70854159    13

Śledź STARLINK-11639 w czasie rzeczywistym z AllMySat

Download on the App Store